Regional Weather Roundup
Issued by NWS Raleigh/Durham, NC

Home | Current Version | Previous Version | Text Only | Print | Product List | Glossary On
Versions: 1 2 3 4 5 6 7 8 9 10 11 12 13 14 15 16 17 18 19 20 21 22 23 24 25 26 27 28
000
ASUS42 KRAH 261310
RWRRAH
NORTH CAROLINA WEATHER ROUNDUP
NATIONAL WEATHER SERVICE RALEIGH NC
900 AM EDT MON JUN 26 2017

NOTE: "FAIR" INDICATES FEW OR NO CLOUDS BELOW 12,000 FEET WITH NO
SIGNIFICANT WEATHER AND/OR OBSTRUCTIONS TO VISIBILITY.

NCZ001-053-055-056-065-067-261400-
WESTERN NORTH CAROLINA

CITY           SKY/WX    TMP DP  RH WIND       PRES   REMARKS
ASHEVILLE      SUNNY     62  49  62 N7        30.23R
JEFFERSON      SUNNY     60  47  61 CALM      30.23S
HICKORY        SUNNY     66  57  72 CALM      30.18R
RUTHERFORDTON  NOT AVBL
MOUNT AIRY     SUNNY     67  55  66 CALM      30.19S
BOONE          NOT AVBL
$$

NCZ021-022-025-041-071-084-088-261400-
CENTRAL NORTH CAROLINA

CITY           SKY/WX    TMP DP  RH WIND       PRES   REMARKS
CHARLOTTE      PTSUNNY   69  59  70 N3        30.17R
GREENSBORO     MOSUNNY   71  55  56 NW7       30.15R
WINSTON-SALEM  SUNNY     70  52  52 NW7       30.17R
RALEIGH-DURHAM MOSUNNY   73  54  51 N5        30.14R
FORT BRAGG     SUNNY     76  57  51 NE5       30.12R
FAYETTEVILLE   MOSUNNY   77  58  51 NE6       30.12R
BURLINGTON     SUNNY     74  56  53 NW7       30.14R
LAURINBURG     SUNNY     76  60  57 NE10      30.13R
$$

NCZ011-015-027-028-043-044-047-080-103-261400-
NORTHEASTERN NORTH CAROLINA

CITY           SKY/WX    TMP DP  RH WIND       PRES   REMARKS
ROCKY MT-WILSO SUNNY     73  59  61 N6        30.12R
GREENVILLE     SUNNY     73  59  60 N6        30.13R
WASHINGTON     MOSUNNY  N/A N/A N/A N6        30.11R
ELIZABETH CITY SUNNY     77  64  64 N10       30.09S
MANTEO         CLOUDY    75  60  59 NE12G17   30.08S
CAPE HATTERAS  CLOUDY    79  66  64 N7        30.07R
$$

NCZ078-087-090-091-093-098-101-261400-
SOUTHEASTERN NORTH CAROLINA

CITY           SKY/WX    TMP DP  RH WIND       PRES   REMARKS
LUMBERTON      MOSUNNY   76  58  53 NE12      30.11S
GOLDSBORO      SUNNY     75  56  52 N6        30.10R
KINSTON        SUNNY     73  57  56 N6        30.12S
KENANSVILLE    CLOUDY    75  57  53 N8        30.12R
NEW BERN       MOSUNNY   75  61  61 N6        30.11R
CHERRY POINT   CLOUDY    74  63  68 N10       30.10S
BEAUFORT       CLOUDY    76  67  73 N7        30.09R
JACKSONVILLE   CLOUDY    73  62  68 N8        30.10R
WILMINGTON     CLOUDY    75  65  70 N7        30.10R
$$





USA.gov is the U.S. government's official web portal to all federal, state and local government web resources and services.